Location: Prague
(50.0833°N, 14.4667°E)
Time: 20:18:51
(UTC+02:00)

ISS - Pass Details

Date: 26 May 2024
Orbit: 410 x 421 km, 51.6° (Epoch: 12 June)

Event Time Altitude Azimuth Distance (km) Brightness Sun altitude
Rises 18:16:56 0° 267° (W) 2,378 1.5 22.9°
Reaches altitude 10° 18:19:03 10° 270° (W) 1,512 1.1 22.5°
Maximum altitude 18:22:26 67° 354° (N) 461 -3.1 22.0°
Drops below altitude 10° 18:25:49 10° 78° (ENE) 1,508 -1.4 21.4°
Sets 18:27:55 0° 81° (E) 2,371 -0.5 21.1°
